Date String (YYYY-MM-DD hh:mm:ss) UTC,Instrument flags,absolute air pressure of the measurement (hPa),sample flow rate (lpm),inlet stack bypass flow (lpm),air temperature of the measurement (°C),ambient temperature measured by the external sensor (°C),aerosol sample conditioner tube jacket temperature (°C),OPC LED temperature (°C),internal box temperature (°C),relative humidity of the measurement (%),span deviation,mass concentration of particles derived from Lorenz-Mie calculation of OPC scattering (μg/m³),mass concentration of particles derived from Lorenz-Mie calculation of OPC scattering (μg/m³),mass concentration of particles derived from Lorenz-Mie calculation of OPC scattering (μg/m³)
DateTimeUTC,F1_M11,P_M11,Q1_M11,Q2_M11,T1_M11,T2_M11,T3_M11,T4_M11,T5_M11,U1_M11,ZSPAN_M11,X2_M11,X0_M11,X1_M11
2024-05-31 23:00:00,SystemResetWarning,0829.3,5.00,000.00,030.5,028.9,000.0,039.2,032.1,026.4,0002.1,0007.71,0016.39,0006.83
2024-05-31 23:01:00,SystemResetWarning,0829.3,5.01,000.00,030.5,029.1,000.0,039.2,032.2,025.9,0001.5,0007.67,0016.78,0006.79
2024-05-31 23:02:00,SystemResetWarning,0829.3,5.00,000.00,030.6,029.3,000.0,039.2,032.2,025.5,0001.1,0007.63,0016.83,0006.76
2024-05-31 23:03:00,SystemResetWarning,0829.4,5.00,000.00,030.6,029.5,000.0,039.1,032.3,025.2,0001.0,0007.72,0017.89,0006.77
2024-05-31 23:04:00,SystemResetWarning,0829.3,4.99,000.00,030.6,029.7,000.0,039.1,032.4,025.2,0001.3,0007.76,0018.16,0006.78
2024-05-31 23:05:00,SystemResetWarning,0829.3,5.00,000.00,030.7,029.8,000.0,039.1,032.5,025.3,0001.3,0007.78,0017.76,0006.77
2024-05-31 23:06:00,SystemResetWarning,0829.3,4.99,000.00,030.7,029.9,000.0,039.1,032.5,025.1,0001.1,0007.81,0017.58,0006.77
2024-05-31 23:07:00,SystemResetWarning,0829.4,5.00,000.00,030.8,030.0,000.0,039.2,032.5,025.4,0001.1,0007.80,0017.44,0006.74
2024-05-31 23:08:00,SystemResetWarning,0829.3,5.00,000.00,030.8,030.1,000.0,039.2,032.6,025.5,0001.1,0007.72,0018.29,0006.69
2024-05-31 23:09:00,SystemResetWarning,0829.3,5.00,000.00,030.8,030.2,000.0,039.2,032.6,025.1,0001.1,0007.72,0018.29,0006.66
2024-05-31 23:10:00,SystemResetWarning,0829.2,5.00,000.00,030.9,030.2,000.0,039.2,032.7,025.2,0000.9,0007.75,0018.05,0006.65
2024-05-31 23:11:00,SystemResetWarning,0829.2,5.01,000.00,030.9,030.3,000.0,039.2,032.7,025.3,0000.7,0007.72,0018.47,0006.65
2024-05-31 23:12:00,SystemResetWarning,0829.2,5.00,000.00,031.0,030.4,000.0,039.3,032.8,025.5,0000.9,0007.71,0018.90,0006.65
2024-05-31 23:13:00,SystemResetWarning,0829.3,5.00,000.00,031.0,030.4,000.0,039.3,032.8,025.6,0001.3,0007.70,0019.86,0006.62
2024-05-31 23:14:00,SystemResetWarning,0829.3,5.00,000.00,031.0,030.5,000.0,039.3,032.9,025.2,0001.2,0007.66,0019.42,0006.59
2024-05-31 23:15:00,SystemResetWarning,0829.3,5.00,000.00,031.1,030.5,000.0,039.3,032.9,025.3,0001.6,0007.65,0020.34,0006.58
2024-05-31 23:16:00,SystemResetWarning,0829.3,5.00,000.00,031.1,030.5,000.0,039.4,032.9,025.0,0001.5,0007.63,0021.01,0006.57
2024-05-31 23:17:00,SystemResetWarning,0829.4,5.00,000.00,031.1,030.6,000.0,039.4,033.0,024.8,0001.8,0007.60,0021.23,0006.55
2024-05-31 23:18:00,SystemResetWarning,0829.3,5.00,000.00,031.2,030.6,000.0,039.4,033.0,024.7,0001.8,0007.58,0020.69,0006.53
2024-05-31 23:19:00,SystemResetWarning,0829.2,5.00,000.00,031.2,030.6,000.0,039.4,032.9,024.8,0001.7,0007.58,0019.66,0006.55
2024-05-31 23:20:00,SystemResetWarning,0829.1,5.00,000.00,031.0,028.8,000.0,039.5,032.0,024.9,0001.8,0007.57,0018.96,0006.56
2024-05-31 23:21:00,SystemResetWarning,0829.1,4.99,000.00,030.5,026.5,000.0,039.5,030.9,025.6,0001.7,0007.53,0018.67,0006.58
2024-05-31 23:22:00,SystemResetWarning,0829.0,5.01,000.00,030.1,026.0,000.0,039.4,030.6,026.1,0001.6,0007.56,0017.92,0006.60
2024-05-31 23:23:00,SystemResetWarning,0829.1,5.02,000.00,030.0,026.5,000.0,039.2,030.8,026.5,0001.4,0007.64,0018.15,0006.63
2024-05-31 23:24:00,SystemResetWarning,0829.1,4.99,000.00,029.9,027.0,000.0,039.0,031.0,026.4,0001.3,0007.68,0017.45,0006.67
2024-05-31 23:25:00,SystemResetWarning,0829.2,4.99,000.00,029.9,027.5,000.0,038.9,031.3,026.3,0001.6,0007.66,0017.15,0006.70
2024-05-31 23:26:00,SystemResetWarning,0829.1,5.00,000.00,030.0,028.0,000.0,038.8,031.4,026.3,0001.4,0007.63,0016.06,0006.70
2024-05-31 23:27:00,SystemResetWarning,0829.1,5.01,000.00,030.0,028.3,000.0,038.8,031.6,026.5,0001.3,0007.64,0016.25,0006.71
2024-05-31 23:28:00,SystemResetWarning,0829.1,5.00,000.00,030.0,028.6,000.0,038.8,031.7,026.3,0000.9,0007.62,0015.43,0006.71
2024-05-31 23:29:00,SystemResetWarning,0829.1,5.01,000.00,030.1,028.9,000.0,038.7,031.8,026.2,0000.8,0007.64,0015.47,0006.74
2024-05-31 23:30:00,SystemResetWarning,0829.1,5.00,000.00,030.1,029.1,000.0,038.7,031.9,026.4,0000.8,0007.65,0015.68,0006.75
2024-05-31 23:31:00,SystemResetWarning,0829.1,5.00,000.00,030.2,029.3,000.0,038.7,032.0,026.0,-000.1,0007.70,0016.14,0006.74
2024-05-31 23:32:00,SystemResetWarning,0829.2,5.00,000.00,030.3,029.4,000.0,038.7,032.0,026.0,0000.0,0007.69,0016.10,0006.71
2024-05-31 23:33:00,SystemResetWarning,0829.2,5.00,000.00,030.3,029.6,000.0,038.7,032.1,026.1,0000.6,0007.70,0016.68,0006.69
2024-05-31 23:34:00,SystemResetWarning,0829.1,5.00,000.00,030.4,029.7,000.0,038.7,032.2,026.2,0000.7,0007.66,0017.27,0006.66
2024-05-31 23:35:00,SystemResetWarning,0829.1,5.00,000.00,030.4,029.8,000.0,038.7,032.2,026.3,0000.6,0007.60,0017.03,0006.61
2024-05-31 23:36:00,SystemResetWarning,0829.1,4.99,000.00,030.5,029.9,000.0,038.8,032.3,025.9,0000.6,0007.58,0017.32,0006.58
2024-05-31 23:37:00,SystemResetWarning,0829.1,5.01,000.00,030.5,029.9,000.0,038.8,032.4,025.9,0000.3,0007.58,0017.30,0006.57
2024-05-31 23:38:00,SystemResetWarning,0829.1,5.01,000.00,030.6,030.0,000.0,038.8,032.4,025.8,0001.0,0007.57,0016.91,0006.56
2024-05-31 23:39:00,SystemResetWarning,0829.1,5.01,000.00,030.6,030.1,000.0,038.9,032.5,025.8,0001.5,0007.58,0016.60,0006.56
2024-05-31 23:40:00,SystemResetWarning,0829.1,5.00,000.00,030.7,030.1,000.0,038.9,032.5,025.6,0001.8,0007.59,0017.19,0006.53
2024-05-31 23:41:00,SystemResetWarning,0829.2,5.00,000.00,030.7,030.2,000.0,038.9,032.5,025.4,0002.1,0007.54,0018.06,0006.49
2024-05-31 23:42:00,SystemResetWarning,0829.3,5.00,000.00,030.8,030.2,000.0,038.9,032.6,025.5,0002.6,0007.49,0018.01,0006.48
2024-05-31 23:43:00,SystemResetWarning,0829.3,5.00,000.00,030.8,030.3,000.0,039.0,032.6,025.4,0002.8,0007.46,0017.55,0006.48
2024-05-31 23:44:00,SystemResetWarning,0829.4,4.99,000.00,030.8,030.3,000.0,039.0,032.7,025.2,0002.6,0007.44,0017.19,0006.46
2024-05-31 23:45:00,SystemResetWarning,0829.4,5.01,000.00,030.9,030.4,000.0,039.0,032.7,025.2,0003.1,0007.39,0016.28,0006.44
2024-05-31 23:46:00,SystemResetWarning,0829.2,5.00,000.00,030.9,030.4,000.0,039.1,032.7,025.5,0003.0,0007.38,0016.27,0006.45
2024-05-31 23:47:00,SystemResetWarning,0829.1,5.00,000.00,031.0,030.5,000.0,039.1,032.8,025.4,0002.3,0007.39,0017.17,0006.46
2024-05-31 23:48:00,SystemResetWarning,0829.1,5.00,000.00,031.0,030.5,000.0,039.1,032.8,025.3,0003.4,0007.38,0017.94,0006.43
2024-05-31 23:49:00,SystemResetWarning,0829.1,5.01,000.00,031.0,030.5,000.0,039.2,032.8,025.1,0003.0,0007.36,0017.75,0006.42
2024-05-31 23:50:00,SystemResetWarning,0829.1,5.01,000.00,031.1,030.5,000.0,039.2,032.8,025.2,0002.6,0007.33,0017.23,0006.41
2024-05-31 23:51:00,SystemResetWarning,0829.1,4.99,000.00,030.8,028.4,000.0,039.3,031.8,025.6,0002.6,0007.28,0016.62,0006.38
2024-05-31 23:52:00,SystemResetWarning,0829.0,5.02,000.00,030.4,027.0,000.0,039.3,031.1,026.3,0002.2,0007.24,0015.76,0006.34
2024-05-31 23:53:00,SystemResetWarning,0829.0,4.99,000.00,030.2,027.2,000.0,039.2,031.0,026.5,0002.1,0007.24,0015.51,0006.28
2024-05-31 23:54:00,SystemResetWarning,0829.0,4.99,000.00,030.2,027.6,000.0,039.0,031.2,027.5,0001.5,0007.23,0016.11,0006.24
2024-05-31 23:55:00,SystemResetWarning,0829.1,4.99,000.00,030.2,028.0,000.0,039.0,031.5,027.4,0001.1,0007.16,0016.41,0006.19
2024-05-31 23:56:00,SystemResetWarning,0829.1,5.01,000.00,030.2,028.4,000.0,038.9,031.6,027.0,0000.7,0007.13,0016.62,0006.13
2024-05-31 23:57:00,SystemResetWarning,0829.1,5.01,000.00,030.2,028.7,000.0,038.9,031.8,026.8,0000.0,0007.09,0016.50,0006.06
2024-05-31 23:58:00,SystemResetWarning,0829.1,5.00,000.00,030.2,028.9,000.0,038.8,031.9,026.8,0000.0,0007.04,0015.15,0006.00
2024-05-31 23:59:00,SystemResetWarning,0829.1,5.00,000.00,030.3,029.1,000.0,038.8,031.9,026.7,0000.0,0006.97,0014.60,0005.96
